ONEWEB-0086, 45456

Orbit data source: Space-Track

ONEWEB-0086, 45456 is a payload satellite owned by One Web (UK) in LEO that was launched on Sat, 21 Mar 2020 UTC via a SOYUZ-2-1B launch vehicle from the Tyuratam Missile And Space Complex (TTMTR). Payload-class satellites include a variety of spacecraft equipped with specific instruments for various scientific and technological missions. These include communications satellites like Starlink; space stations such as the ISS; scientific satellites like the Hubble; Earth observation satellites from companies like Planet Labs, Umbra, and HawkEye 360; GPS; miniature CubeSats for education and research; and military/defense satellites.

Loading next visibility...
Identifier
45456, 2020-020AJ
Orbit
LEO
Last TLE update
15 hours ago
Origin
Manufacturer
One Web
Mission
Operational Commercial Communications
Bus & Motor
ARROW, Unknown motor
Mass
148 kg wet, ~140 kg dry
Launch date (UTC)
2020-03-21 (5 years ago)
Launch vehicle
SOYUZ-2-1B
Launch site
Tyuratam Missile And Space Complex (TTMTR)
Object type
Payload
Rocket body
Debris
Shape & HBR
Trap Box + 2 Pan, 5 m
Radar Cross Section
2.957 m², Large (>1 m²)

Expand to show TLE details & history

TLE from 15 hours ago
0 ONEWEB-0086
1 45456U 20020AJ  25181.80515648  .00000552  00000-0  15211-2 0  9996
2 45456  87.8840  91.0881 0001789  88.3006 271.8326 13.11418263256550
Epoch: 2025-06-30T19:19Z
TLE epoch observation values (Epoch: 2025-06-30T19:19:25.519Z)
Latitude
-0.00013°
Longitude
-117.87793°
Altitude
1,220.524 km
Speed
7.244 km/s
True Right ascension
06h 04m 21s
True Declination
0° 00' 00"
Sunlit
Object was in daylight at epoch
Visualization orbit readout
Latitude
62.39571°
Longitude
-113.97067°
Altitude
1,227.203 km
Speed
7.247 km/s
Apparent Right ascension
08h 26m 45s
Apparent Declination
19° 20' 19"
Sunlit
Object is in daylight
Visualization observer readout
Local Sidereal Time
21:55:47
Azimuth
23.697° NE
Elevation
-27.213°
Doppler factor
1
Orbital elements
Apogee altitude
1,216.154 km
Perigee altitude
1,213.438 km
Semi-major axis
7,592.933 km
Eccentricity
0.00018
Inclination
87.884°
RAAN
91.0881°
Arg. of periapsis
88.3006°
True anomaly
Unknown
Mean anomaly
271.8326°
Eccentric anomaly
Unknown
Mean motion
3.28042 °/min
Orbital period
109.74 mins
BSTAR
0.0015211
Loading maneuver chart data...
Loading SW <> Apogee altitude chart data...
Loading historical data...
Loading historical data...
Loading historical data...
Loading historical data...
Loading historical data...
Loading historical data...
Loading historical data...

ONEWEB-0086 Visibility forecast

Observer location: undefined°, undefined°

Span
Click to sort rows by Start time (UTC) header in descending order
Start Az.
Max El. time (UTC)
Max El. Az.
Max El.
End time (UTC)
End Az.
12 mins2025-07-01 17:24:21.840Z139.298° SSE2025-07-01 17:30:21.840Z78.996° E29.64°2025-07-01 17:36:21.840Z19.741° NNE
12 mins2025-07-01 19:14:21.840Z212.704° SW2025-07-01 19:20:21.840Z284.126° WNW33.652°2025-07-01 19:26:21.840Z345.047° N
10 mins2025-07-02 04:54:21.840Z28.134° NE2025-07-02 04:59:21.840Z79.12° E24.921°2025-07-02 05:04:21.840Z129.041° SE
12 mins2025-07-02 06:44:21.840Z344.091° N2025-07-02 06:49:21.840Z279.308° WNW38.419°2025-07-02 06:56:21.840Z202.918° SW
|